Regional Weather Roundup
Issued by NWS

Home | Current Version | Previous Version | Graphics & Text | Print | Product List | Glossary On
Versions: 1 2 3 4 5 6 7 8 9 10 11 12 13 14 15 16 17 18 19 20 21 22 23 24 25 26 27 28 29 30 31 32 33 34 35 36 37 38 39 40 41 42 43 44 45 46 47 48 49 50
832
ASUS43 KFSD 050102
RWRSD

WEATHER ROUNDUP FOR SOUTH DAKOTA
NATIONAL WEATHER SERVICE SIOUX FALLS SD
700 PM CST SUN DEC 04 2016

NOTE: "FAIR" INDICATES FEW OR NO CLOUDS BELOW 12,000 FEET WITH NO
SIGNIFICANT WEATHER AND/OR OBSTRUCTIONS TO VISIBILITY.


SDZ001>005-009-010-012>017-050200-
NORTHWEST AND NORTH CENTRAL SOUTH DAKOTA

CITY           SKY/WX    TMP DP  RH WIND       PRES   REMARKS
BUFFALO          N/A     34  22  61 S6        29.53F WCI  29
FAITH            N/A     31  24  75 S12       29.65F WCI  22
MOBRIDGE       CLOUDY    29  23  78 SE8       29.67F WCI  21
$$

SDZ012>016-024>037-041>051-057-063-072>074-050200-
SOUTHWEST AND SOUTH CENTRAL SOUTH DAKOTA

CITY           SKY/WX    TMP DP  RH WIND       PRES   REMARKS
RAPID CTY ARPT CLOUDY    37  17  44 S7        29.63F
PIERRE         CLEAR     26  22  84 CALM      29.71F
CUSTER         CLOUDY    32  15  49 SW7       29.62F WCI  26
ELLSWORTH AFB  CLOUDY    36  17  45 S6        29.62F
PHILIP         PTCLDY    35  23  61 SE6       29.68F
PINE RIDGE     CLOUDY    32  24  72 NE3       29.67F
SPEARFISH      CLOUDY    37  18  44 CALM      29.60F
WINNER         FAIR      34  25  69 SE10      29.74F WCI  26
$$

SDZ004>011-016>023-039-040-050200-
NORTHEAST SOUTH DAKOTA

CITY           SKY/WX    TMP DP  RH WIND       PRES   REMARKS
ABERDEEN       CLEAR     27  24  89 S7        29.74F WCI  19
WATERTOWN      CLEAR     31  28  89 SW12      29.74S WCI  22
SISSETON         N/A     33  28  81 W8        29.71F WCI  26
$$

SDZ017-020-022-023-036>040-048>070-050200-
SOUTHEAST SOUTH DAKOTA

CITY           SKY/WX    TMP DP  RH WIND       PRES   REMARKS
SIOUX FALLS    CLEAR     36  30  79 SW5       29.80S
HURON          CLEAR     33  28  81 S7        29.77F WCI  27
CHAMBERLAIN    CLEAR     33  28  81 SE5       29.76F WCI  29
MITCHELL       CLEAR     35  29  78 SW8       29.79F WCI  29
YANKTON        CLEAR     34  25  69 SE3       29.81F
$$

ABBREVIATIONS USED IN REMARKS
   TC - TEMPERATURE IN CELSIUS
  WCI - WIND CHILL INDEX
   HX - HEAT INDEX
  VSB - VISIBILITY





USA.gov is the U.S. government's official web portal to all federal, state and local government web resources and services.